Time,TemperatureF,DewpointF,PressureIn,WindDirection,WindDirectionDegrees,WindSpeedMPH,WindSpeedGustMPH,Humidity,HourlyPrecipIn,Conditions,Clouds,dailyrainin,SolarRadiationWatts/m^2,SoftwareType,DateUTC
2013-02-26 00:01:00,58.0,54.0,-100.00,NNE,17,23.0,31.0,86,0.00,,,0.04,0.000000,,2013-02-26 10:01:00,
2013-02-26 00:21:00,58.0,54.0,-100.00,NNE,17,23.0,31.0,86,0.00,,,0.04,0.000000,,2013-02-26 10:21:00,
2013-02-26 00:32:00,58.0,54.0,-100.00,NNE,17,23.0,31.0,86,0.00,,,0.04,0.000000,,2013-02-26 10:32:00,
2013-02-26 00:42:00,58.0,54.0,-100.00,NNE,17,23.0,31.0,86,0.00,,,0.04,0.000000,,2013-02-26 10:42:00,
2013-02-26 00:52:00,58.0,54.0,-100.00,NNE,17,23.0,31.0,86,0.00,,,0.04,0.000000,,2013-02-26 10:52:00,
2013-02-26 01:01:00,57.0,53.0,-100.00,North,5,20.0,34.0,85,0.00,,,0.04,0.000000,,2013-02-26 11:01:00,
2013-02-26 01:22:00,57.0,53.0,-100.00,North,5,20.0,34.0,85,0.00,,,0.04,0.000000,,2013-02-26 11:22:00,
2013-02-26 01:32:00,57.0,53.0,-100.00,North,5,20.0,34.0,85,0.00,,,0.04,0.000000,,2013-02-26 11:32:00,
2013-02-26 01:42:00,57.0,53.0,-100.00,North,5,20.0,34.0,85,0.00,,,0.04,0.000000,,2013-02-26 11:42:00,
2013-02-26 01:52:00,57.0,53.0,-100.00,North,5,20.0,34.0,85,0.00,,,0.04,0.000000,,2013-02-26 11:52:00,
2013-02-26 02:01:00,57.0,51.0,-100.00,North,6,22.0,36.0,81,0.00,,,0.04,0.000000,,2013-02-26 12:01:00,
2013-02-26 02:22:00,57.0,51.0,-100.00,North,6,22.0,36.0,81,0.00,,,0.04,0.000000,,2013-02-26 12:22:00,
2013-02-26 02:32:00,57.0,51.0,-100.00,North,6,22.0,36.0,81,0.00,,,0.04,0.000000,,2013-02-26 12:32:00,
2013-02-26 02:42:00,57.0,51.0,-100.00,North,6,22.0,36.0,81,0.00,,,0.04,0.000000,,2013-02-26 12:42:00,
2013-02-26 02:53:00,57.0,51.0,-100.00,North,6,22.0,36.0,81,0.00,,,0.04,0.000000,,2013-02-26 12:53:00,
2013-02-26 03:01:00,58.0,50.0,-100.00,North,359,22.0,35.0,74,0.00,,,0.04,0.000000,,2013-02-26 13:01:00,
2013-02-26 03:22:00,58.0,50.0,-100.00,North,359,22.0,35.0,74,0.00,,,0.04,0.000000,,2013-02-26 13:22:00,
2013-02-26 03:32:00,58.0,50.0,-100.00,North,359,22.0,35.0,74,0.00,,,0.04,0.000000,,2013-02-26 13:32:00,
2013-02-26 03:42:00,58.0,50.0,-100.00,North,359,22.0,35.0,74,0.00,,,0.04,0.000000,,2013-02-26 13:42:00,
2013-02-26 03:52:00,58.0,50.0,-100.00,North,359,22.0,35.0,74,0.00,,,0.04,0.000000,,2013-02-26 13:52:00,
2013-02-26 04:01:00,57.0,51.0,-100.00,North,9,23.0,35.0,80,0.00,,,0.04,0.000000,,2013-02-26 14:01:00,
2013-02-26 04:32:00,57.0,51.0,-100.00,North,9,23.0,35.0,80,0.00,,,0.04,0.000000,,2013-02-26 14:32:00,
2013-02-26 04:42:00,57.0,51.0,-100.00,North,9,23.0,35.0,80,0.00,,,0.04,0.000000,,2013-02-26 14:42:00,
2013-02-26 04:52:00,57.0,51.0,-100.00,North,9,23.0,35.0,80,0.00,,,0.04,0.000000,,2013-02-26 14:52:00,
2013-02-26 05:01:00,57.0,49.0,-100.00,North,3,24.0,35.0,74,0.00,,,0.04,0.000000,,2013-02-26 15:01:00,
2013-02-26 05:32:00,57.0,49.0,-100.00,North,3,24.0,35.0,74,0.00,,,0.04,0.000000,,2013-02-26 15:32:00,
2013-02-26 05:42:00,57.0,49.0,-100.00,North,3,24.0,35.0,74,0.00,,,0.04,0.000000,,2013-02-26 15:42:00,
2013-02-26 05:52:00,57.0,49.0,-100.00,North,3,24.0,35.0,74,0.00,,,0.04,0.000000,,2013-02-26 15:52:00,
2013-02-26 06:01:00,58.0,48.0,-100.00,North,353,23.0,35.0,69,0.00,,,0.04,0.000000,,2013-02-26 16:01:00,
2013-02-26 06:32:00,58.0,48.0,-100.00,North,353,23.0,35.0,69,0.00,,,0.04,0.000000,,2013-02-26 16:32:00,
2013-02-26 06:42:00,58.0,48.0,-100.00,North,353,23.0,35.0,69,0.00,,,0.04,0.000000,,2013-02-26 16:42:00,
2013-02-26 06:52:00,58.0,48.0,-100.00,North,353,23.0,35.0,69,0.00,,,0.04,0.000000,,2013-02-26 16:52:00,
2013-02-26 07:01:00,56.0,50.0,-100.00,North,356,22.0,37.0,80,0.00,,,0.04,4.000000,,2013-02-26 17:01:00,
2013-02-26 07:32:00,56.0,50.0,-100.00,North,356,22.0,37.0,80,0.00,,,0.04,4.000000,,2013-02-26 17:32:00,
2013-02-26 07:42:00,56.0,50.0,-100.00,North,356,22.0,37.0,80,0.00,,,0.04,4.000000,,2013-02-26 17:42:00,
2013-02-26 07:52:00,56.0,50.0,-100.00,North,356,22.0,37.0,80,0.00,,,0.04,4.000000,,2013-02-26 17:52:00,
2013-02-26 08:01:00,60.0,52.0,-100.00,North,4,23.0,36.0,74,0.00,,,0.04,146.000000,,2013-02-26 18:01:00,
2013-02-26 08:32:00,60.0,52.0,-100.00,North,4,23.0,36.0,74,0.00,,,0.04,146.000000,,2013-02-26 18:32:00,
2013-02-26 08:42:00,60.0,52.0,-100.00,North,4,23.0,36.0,74,0.00,,,0.04,146.000000,,2013-02-26 18:42:00,
2013-02-26 08:52:00,60.0,52.0,-100.00,North,4,23.0,36.0,74,0.00,,,0.04,146.000000,,2013-02-26 18:52:00,
2013-02-26 09:01:00,64.0,52.0,-100.00,NNE,13,23.0,35.0,64,0.00,,,0.04,384.000000,,2013-02-26 19:01:00,
2013-02-26 09:32:00,64.0,52.0,-100.00,NNE,13,23.0,35.0,64,0.00,,,0.04,384.000000,,2013-02-26 19:32:00,
2013-02-26 09:42:00,64.0,52.0,-100.00,NNE,13,23.0,35.0,64,0.00,,,0.04,384.000000,,2013-02-26 19:42:00,
2013-02-26 09:52:00,64.0,52.0,-100.00,NNE,13,23.0,35.0,64,0.00,,,0.04,384.000000,,2013-02-26 19:52:00,
2013-02-26 11:01:00,69.0,54.0,-100.00,NNE,21,18.0,34.0,58,-99.99,,,-99.99,773.000000,,2013-02-26 21:01:00,
2013-02-26 11:31:00,69.0,54.0,-100.00,NNE,21,18.0,34.0,58,-99.99,,,-99.99,773.000000,,2013-02-26 21:31:00,
2013-02-26 11:41:00,69.0,54.0,-100.00,NNE,21,18.0,34.0,58,-99.99,,,-99.99,773.000000,,2013-02-26 21:41:00,
2013-02-26 11:51:00,69.0,54.0,-100.00,NNE,21,18.0,34.0,58,-99.99,,,-99.99,773.000000,,2013-02-26 21:51:00,
2013-02-26 12:01:00,69.0,53.0,-100.00,NNE,27,20.0,34.0,57,0.00,,,0.04,941.000000,,2013-02-26 22:01:00,
2013-02-26 12:32:00,69.0,53.0,-100.00,NNE,27,20.0,34.0,57,0.00,,,0.04,941.000000,,2013-02-26 22:32:00,
2013-02-26 12:42:00,69.0,53.0,-100.00,NNE,27,20.0,34.0,57,0.00,,,0.04,941.000000,,2013-02-26 22:42:00,
2013-02-26 12:52:00,69.0,53.0,-100.00,NNE,27,20.0,34.0,57,0.00,,,0.04,941.000000,,2013-02-26 22:52:00,
2013-02-26 13:01:00,69.0,52.0,-100.00,NE,34,22.0,35.0,54,0.00,,,0.04,932.000000,,2013-02-26 23:01:00,
2013-02-26 13:32:00,69.0,52.0,-100.00,NE,34,22.0,35.0,54,0.00,,,0.04,932.000000,,2013-02-26 23:32:00,
2013-02-26 13:42:00,69.0,52.0,-100.00,NE,34,22.0,35.0,54,0.00,,,0.04,932.000000,,2013-02-26 23:42:00,
2013-02-26 13:52:00,69.0,52.0,-100.00,NE,34,22.0,35.0,54,0.00,,,0.04,932.000000,,2013-02-26 23:52:00,
2013-02-26 14:01:00,67.0,54.0,-100.00,NNE,32,22.0,33.0,63,0.00,,,0.04,844.000000,,2013-02-27 00:01:00,
2013-02-26 14:22:00,67.0,54.0,-100.00,NNE,32,22.0,33.0,63,0.00,,,0.04,844.000000,,2013-02-27 00:22:00,
2013-02-26 14:32:00,67.0,54.0,-100.00,NNE,32,22.0,33.0,63,0.00,,,0.04,844.000000,,2013-02-27 00:32:00,
2013-02-26 14:42:00,67.0,54.0,-100.00,NNE,32,22.0,33.0,63,0.00,,,0.04,844.000000,,2013-02-27 00:42:00,
2013-02-26 14:52:00,67.0,54.0,-100.00,NNE,32,22.0,33.0,63,0.00,,,0.04,844.000000,,2013-02-27 00:52:00,
2013-02-26 15:01:00,68.0,51.0,-100.00,NNE,20,24.0,34.0,54,0.00,,,0.04,826.000000,,2013-02-27 01:01:00,
2013-02-26 15:22:00,68.0,51.0,-100.00,NNE,20,24.0,34.0,54,0.00,,,0.04,826.000000,,2013-02-27 01:22:00,
2013-02-26 15:32:00,68.0,51.0,-100.00,NNE,20,24.0,34.0,54,0.00,,,0.04,826.000000,,2013-02-27 01:32:00,
2013-02-26 15:42:00,68.0,51.0,-100.00,NNE,20,24.0,34.0,54,0.00,,,0.04,826.000000,,2013-02-27 01:42:00,
2013-02-26 15:52:00,68.0,51.0,-100.00,NNE,20,24.0,34.0,54,0.00,,,0.04,826.000000,,2013-02-27 01:52:00,
2013-02-26 16:01:00,66.0,53.0,-100.00,NNE,18,21.0,34.0,64,0.00,,,0.04,661.000000,,2013-02-27 02:01:00,
2013-02-26 16:24:00,66.0,53.0,-100.00,NNE,18,21.0,34.0,64,0.00,,,0.04,661.000000,,2013-02-27 02:24:00,
2013-02-26 16:32:00,66.0,53.0,-100.00,NNE,18,21.0,34.0,64,0.00,,,0.04,661.000000,,2013-02-27 02:32:00,
2013-02-26 16:42:00,66.0,53.0,-100.00,NNE,18,21.0,34.0,64,0.00,,,0.04,661.000000,,2013-02-27 02:42:00,
2013-02-26 16:52:00,66.0,53.0,-100.00,NNE,18,21.0,34.0,64,0.00,,,0.04,661.000000,,2013-02-27 02:52:00,
2013-02-26 17:01:00,63.0,56.0,-100.00,NNE,21,23.0,35.0,78,0.00,,,0.04,435.000000,,2013-02-27 03:01:00,
2013-02-26 17:32:00,63.0,56.0,-100.00,NNE,21,23.0,35.0,78,0.00,,,0.04,435.000000,,2013-02-27 03:32:00,
2013-02-26 17:42:00,63.0,56.0,-100.00,NNE,21,23.0,35.0,78,0.00,,,0.04,435.000000,,2013-02-27 03:42:00,
2013-02-26 17:52:00,63.0,56.0,-100.00,NNE,21,23.0,35.0,78,0.00,,,0.04,435.000000,,2013-02-27 03:52:00,
2013-02-26 18:01:00,60.0,55.0,-100.00,North,11,23.0,35.0,83,0.00,,,0.02,189.000000,,2013-02-27 04:01:00,
2013-02-26 18:32:00,60.0,55.0,-100.00,North,11,23.0,35.0,83,0.00,,,0.02,189.000000,,2013-02-27 04:32:00,
2013-02-26 18:42:00,60.0,55.0,-100.00,North,11,23.0,35.0,83,0.00,,,0.02,189.000000,,2013-02-27 04:42:00,
2013-02-26 18:52:00,60.0,55.0,-100.00,North,11,23.0,35.0,83,0.00,,,0.02,189.000000,,2013-02-27 04:52:00,
2013-02-26 19:01:00,59.0,55.0,-100.00,North,10,17.0,30.0,88,0.00,,,0.01,10.000000,,2013-02-27 05:01:00,
2013-02-26 19:32:00,59.0,55.0,-100.00,North,10,17.0,30.0,88,0.00,,,0.01,10.000000,,2013-02-27 05:32:00,
2013-02-26 19:42:00,59.0,55.0,-100.00,North,10,17.0,30.0,88,0.00,,,0.01,10.000000,,2013-02-27 05:42:00,
2013-02-26 19:52:00,59.0,55.0,-100.00,North,10,17.0,30.0,88,0.00,,,0.01,10.000000,,2013-02-27 05:52:00,
2013-02-26 20:01:00,58.0,54.0,-100.00,North,8,20.0,32.0,88,0.00,,,0.01,0.000000,,2013-02-27 06:01:00,
2013-02-26 20:22:00,58.0,54.0,-100.00,North,8,20.0,32.0,88,0.00,,,0.01,0.000000,,2013-02-27 06:22:00,
2013-02-26 20:33:00,58.0,54.0,-100.00,North,8,20.0,32.0,88,0.00,,,0.01,0.000000,,2013-02-27 06:33:00,
2013-02-26 20:42:00,58.0,54.0,-100.00,North,8,20.0,32.0,88,0.00,,,0.01,0.000000,,2013-02-27 06:42:00,
2013-02-26 20:52:00,58.0,54.0,-100.00,North,8,20.0,32.0,88,0.00,,,0.01,0.000000,,2013-02-27 06:52:00,
2013-02-26 21:01:00,58.0,55.0,-100.00,NNE,17,19.0,27.0,91,0.00,,,0.00,0.000000,,2013-02-27 07:01:00,
2013-02-26 21:22:00,58.0,55.0,-100.00,NNE,17,19.0,27.0,91,0.00,,,0.00,0.000000,,2013-02-27 07:22:00,
2013-02-26 21:32:00,58.0,55.0,-100.00,NNE,17,19.0,27.0,91,0.00,,,0.00,0.000000,,2013-02-27 07:32:00,
2013-02-26 21:42:00,58.0,55.0,-100.00,NNE,17,19.0,27.0,91,0.00,,,0.00,0.000000,,2013-02-27 07:42:00,
2013-02-26 21:52:00,58.0,55.0,-100.00,NNE,17,19.0,27.0,91,0.00,,,0.00,0.000000,,2013-02-27 07:52:00,
2013-02-26 22:01:00,58.0,54.0,-100.00,NNE,17,19.0,32.0,87,0.00,,,0.00,0.000000,,2013-02-27 08:01:00,
2013-02-26 22:22:00,58.0,54.0,-100.00,NNE,17,19.0,32.0,87,0.00,,,0.00,0.000000,,2013-02-27 08:22:00,
2013-02-26 22:32:00,58.0,54.0,-100.00,NNE,17,19.0,32.0,87,0.00,,,0.00,0.000000,,2013-02-27 08:32:00,
2013-02-26 22:42:00,58.0,54.0,-100.00,NNE,17,19.0,32.0,87,0.00,,,0.00,0.000000,,2013-02-27 08:42:00,
2013-02-26 22:52:00,58.0,54.0,-100.00,NNE,17,19.0,32.0,87,0.00,,,0.00,0.000000,,2013-02-27 08:52:00,
2013-02-26 23:01:00,58.0,54.0,-100.00,NNE,12,22.0,32.0,85,0.00,,,0.00,0.000000,,2013-02-27 09:01:00,
2013-02-26 23:32:00,58.0,54.0,-100.00,NNE,12,22.0,32.0,85,0.00,,,0.00,0.000000,,2013-02-27 09:32:00,
2013-02-26 23:42:00,58.0,54.0,-100.00,NNE,12,22.0,32.0,85,0.00,,,0.00,0.000000,,2013-02-27 09:42:00,
2013-02-26 23:52:00,58.0,54.0,-100.00,NNE,12,22.0,32.0,85,0.00,,,0.00,0.000000,,2013-02-27 09:52:00,